IBE267U LEST-LEMD

Flight info

Callsign IBE267U
Flight time 0h 46m
Altitude 29000
Route FORNO DCT DESAT/N0429F300 N733 ZMR
Aircraft A21N/M-SDE2E3FGHIRWXY/LB1

Departure

Time 2026-04-30 10:43
Airport Santiago-Rosalía de Castro Airport (LEST)

Arrival

Time 2026-04-30 11:29
Airport Adolfo Suárez Madrid–Barajas Airport (LEMD)
Time Latitude Longitude Altitude Speed Heading
2026-04-30 10:30 42.89357 -8.41868 1209 ft 0 kts 229°
2026-04-30 10:34 42.89361 -8.41862 1209 ft 4 kts 230°
2026-04-30 10:35 42.89377 -8.41832 1209 ft 4 kts 240°
2026-04-30 10:35 42.89389 -8.41799 1208 ft 4 kts 258°
2026-04-30 10:35 42.89388 -8.41769 1206 ft 4 kts 315°
2026-04-30 10:35 42.89380 -8.41761 1206 ft 1 kts 346°
2026-04-30 10:36 42.89378 -8.41761 1206 ft 0 kts 346°
2026-04-30 10:39 42.89381 -8.41762 1179 ft 3 kts 346°
2026-04-30 10:39 42.89480 -8.41747 1203 ft 26 kts 15°
2026-04-30 10:40 42.89698 -8.41767 1200 ft 34 kts 346°
2026-04-30 10:40 42.89940 -8.41848 1200 ft 37 kts 345°
2026-04-30 10:40 42.90192 -8.41937 1201 ft 38 kts 346°
2026-04-30 10:40 42.90454 -8.42023 1200 ft 40 kts 346°
2026-04-30 10:41 42.90730 -8.42114 1200 ft 42 kts 347°
2026-04-30 10:41 42.91002 -8.42204 1200 ft 22 kts 346°
2026-04-30 10:41 42.91058 -8.42223 1200 ft 0 kts 346°
2026-04-30 10:41 42.91089 -8.42231 1200 ft 15 kts 356°
2026-04-30 10:42 42.91152 -8.42115 1198 ft 21 kts 83°
2026-04-30 10:42 42.91095 -8.42005 1196 ft 16 kts 170°
2026-04-30 10:42 42.90732 -8.41885 1199 ft 97 kts 166°
2026-04-30 10:42 42.89787 -8.41564 1218 ft 178 kts 167°
2026-04-30 10:43 42.88580 -8.41096 2072 ft 175 kts 167°
2026-04-30 10:43 42.87397 -8.40681 3091 ft 186 kts 169°
2026-04-30 10:43 42.86061 -8.40243 4092 ft 206 kts 169°
2026-04-30 10:43 42.84617 -8.39731 5215 ft 221 kts 164°
2026-04-30 10:44 42.83203 -8.38679 6323 ft 247 kts 141°
2026-04-30 10:44 42.82275 -8.36611 7378 ft 271 kts 107°
2026-04-30 10:44 42.82341 -8.33986 8616 ft 288 kts 72°
2026-04-30 10:44 42.83336 -8.31600 10078 ft 293 kts 56°
2026-04-30 10:45 42.84354 -8.29132 11092 ft 311 kts 72°
2026-04-30 10:45 42.84559 -8.26121 11812 ft 330 kts 102°
2026-04-30 10:45 42.83696 -8.23213 12907 ft 335 kts 124°
2026-04-30 10:45 42.82373 -8.20562 14104 ft 342 kts 128°
2026-04-30 10:46 42.80996 -8.17925 15129 ft 350 kts 127°
2026-04-30 10:46 42.79589 -8.15171 16187 ft 358 kts 127°
2026-04-30 10:46 42.78175 -8.12338 17270 ft 365 kts 126°
2026-04-30 10:46 42.76749 -8.09438 18339 ft 372 kts 126°
2026-04-30 10:47 42.75303 -8.06474 19247 ft 379 kts 126°
2026-04-30 10:47 42.73835 -8.03454 20141 ft 385 kts 126°
2026-04-30 10:47 42.72349 -8.00393 21097 ft 390 kts 126°
2026-04-30 10:47 42.70844 -7.97294 22002 ft 396 kts 126°
2026-04-30 10:48 42.69311 -7.94138 22858 ft 403 kts 126°
2026-04-30 10:48 42.67755 -7.90936 23681 ft 409 kts 126°
2026-04-30 10:48 42.66175 -7.87688 24345 ft 415 kts 126°
2026-04-30 10:48 42.64595 -7.84444 25002 ft 420 kts 126°
2026-04-30 10:49 42.62974 -7.81118 25653 ft 425 kts 126°
2026-04-30 10:49 42.61336 -7.77763 26285 ft 429 kts 126°
2026-04-30 10:49 42.59673 -7.74358 26904 ft 434 kts 126°
2026-04-30 10:49 42.57995 -7.70929 27490 ft 439 kts 126°
2026-04-30 10:50 42.56297 -7.67461 28086 ft 443 kts 126°
2026-04-30 10:50 42.54580 -7.63959 28664 ft 447 kts 127°
2026-04-30 10:50 42.52841 -7.60417 29008 ft 449 kts 126°
2026-04-30 10:50 42.51109 -7.56891 29057 ft 450 kts 126°
2026-04-30 10:51 42.47647 -7.49857 29055 ft 453 kts 126°
2026-04-30 10:51 42.44144 -7.42759 29056 ft 453 kts 127°
2026-04-30 10:52 42.40628 -7.35657 29056 ft 453 kts 127°
2026-04-30 10:52 42.37114 -7.28579 29070 ft 453 kts 127°
2026-04-30 10:53 42.33597 -7.21511 29040 ft 453 kts 127°
2026-04-30 10:53 42.30072 -7.14444 29062 ft 454 kts 127°
2026-04-30 10:54 42.26539 -7.07377 29059 ft 454 kts 127°
2026-04-30 10:54 42.23592 -7.01496 29053 ft 454 kts 127°
2026-04-30 10:55 42.19466 -6.93278 29038 ft 454 kts 127°
2026-04-30 10:55 42.16517 -6.87421 29055 ft 454 kts 127°
2026-04-30 10:56 42.12959 -6.80367 29061 ft 455 kts 127°
2026-04-30 10:56 42.09393 -6.73316 29060 ft 456 kts 127°
2026-04-30 10:57 42.05820 -6.66264 29061 ft 455 kts 127°
2026-04-30 10:57 42.02266 -6.59269 29053 ft 455 kts 127°
2026-04-30 10:58 41.98682 -6.52230 29060 ft 455 kts 127°
2026-04-30 10:58 41.95091 -6.45193 29065 ft 455 kts 127°
2026-04-30 10:59 41.91525 -6.38222 29064 ft 456 kts 127°
2026-04-30 10:59 41.87862 -6.31086 29061 ft 475 kts 127°
2026-04-30 11:00 41.84085 -6.23741 29075 ft 480 kts 127°
2026-04-30 11:00 41.80290 -6.16371 29075 ft 480 kts 127°
2026-04-30 11:01 41.76490 -6.09015 29079 ft 480 kts 127°
2026-04-30 11:01 41.72706 -6.01710 29081 ft 480 kts 128°
2026-04-30 11:02 41.68890 -5.94359 29085 ft 481 kts 128°
2026-04-30 11:02 41.65068 -5.87016 29090 ft 480 kts 128°
2026-04-30 11:03 41.61242 -5.79682 29086 ft 480 kts 128°
2026-04-30 11:04 41.55532 -5.68770 29090 ft 480 kts 128°
2026-04-30 11:04 41.51340 -5.61901 29102 ft 475 kts 139°
2026-04-30 11:05 41.46489 -5.55922 29100 ft 474 kts 141°
2026-04-30 11:05 41.41609 -5.49993 29095 ft 474 kts 141°
2026-04-30 11:06 41.36738 -5.44065 29106 ft 474 kts 141°
2026-04-30 11:06 41.31875 -5.38151 29100 ft 474 kts 141°
2026-04-30 11:07 41.26997 -5.32228 29093 ft 477 kts 141°
2026-04-30 11:07 41.22073 -5.26261 29096 ft 480 kts 141°
2026-04-30 11:08 41.17137 -5.20291 29104 ft 479 kts 141°
2026-04-30 11:08 41.12207 -5.14339 29105 ft 479 kts 141°
2026-04-30 11:09 41.07301 -5.08432 29099 ft 479 kts 141°
2026-04-30 11:09 41.02365 -5.02500 29093 ft 479 kts 141°
2026-04-30 11:10 40.97437 -4.96590 29098 ft 477 kts 141°
2026-04-30 11:10 40.92512 -4.90695 29097 ft 477 kts 141°
2026-04-30 11:10 40.90056 -4.87760 28620 ft 475 kts 141°
2026-04-30 11:11 40.87598 -4.84828 27839 ft 476 kts 141°
2026-04-30 11:11 40.85140 -4.81897 27164 ft 475 kts 141°
2026-04-30 11:11 40.82697 -4.78985 26524 ft 470 kts 141°
2026-04-30 11:11 40.80281 -4.76111 25869 ft 464 kts 141°
2026-04-30 11:12 40.77896 -4.73274 25252 ft 458 kts 141°
2026-04-30 11:12 40.75544 -4.70481 24638 ft 453 kts 140°
2026-04-30 11:12 40.73213 -4.67716 24026 ft 449 kts 140°
2026-04-30 11:12 40.70899 -4.64974 23338 ft 445 kts 140°
2026-04-30 11:13 40.68610 -4.62263 22660 ft 440 kts 140°
2026-04-30 11:13 40.66363 -4.59606 22026 ft 436 kts 140°
2026-04-30 11:13 40.64121 -4.56955 21408 ft 431 kts 140°
2026-04-30 11:13 40.61957 -4.54235 20815 ft 429 kts 136°
2026-04-30 11:14 40.59926 -4.51375 20349 ft 426 kts 134°
2026-04-30 11:14 40.57939 -4.48513 19861 ft 422 kts 134°
2026-04-30 11:14 40.55968 -4.45669 19363 ft 418 kts 134°
2026-04-30 11:14 40.54015 -4.42855 18871 ft 415 kts 134°
2026-04-30 11:15 40.52078 -4.40069 18377 ft 411 kts 134°
2026-04-30 11:15 40.50151 -4.37303 17839 ft 408 kts 134°
2026-04-30 11:15 40.48238 -4.34561 17357 ft 405 kts 134°
2026-04-30 11:15 40.46335 -4.31837 16876 ft 402 kts 134°
2026-04-30 11:16 40.44449 -4.29139 16394 ft 399 kts 134°
2026-04-30 11:16 40.42577 -4.26463 15931 ft 397 kts 134°
2026-04-30 11:16 40.40714 -4.23803 15463 ft 394 kts 134°
2026-04-30 11:16 40.38863 -4.21163 14993 ft 392 kts 134°
2026-04-30 11:17 40.37024 -4.18541 14535 ft 390 kts 134°
2026-04-30 11:17 40.35218 -4.15905 14070 ft 388 kts 130°
2026-04-30 11:17 40.33870 -4.12842 13681 ft 389 kts 114°
2026-04-30 11:17 40.32952 -4.09510 13303 ft 388 kts 110°
2026-04-30 11:18 40.32134 -4.06194 12905 ft 385 kts 109°
2026-04-30 11:18 40.30506 -3.99562 12116 ft 380 kts 109°
2026-04-30 11:18 40.29689 -3.96278 11760 ft 378 kts 109°
2026-04-30 11:19 40.28874 -3.93019 11408 ft 376 kts 110°
2026-04-30 11:19 40.28061 -3.89783 11060 ft 373 kts 110°
2026-04-30 11:19 40.27249 -3.86560 10755 ft 371 kts 110°
2026-04-30 11:19 40.26440 -3.83357 10464 ft 368 kts 110°
2026-04-30 11:20 40.25645 -3.80209 9587 ft 362 kts 110°
2026-04-30 11:20 40.24858 -3.77106 8651 ft 355 kts 110°
2026-04-30 11:20 40.24103 -3.74127 8283 ft 334 kts 110°
2026-04-30 11:20 40.23397 -3.71342 8032 ft 311 kts 110°
2026-04-30 11:21 40.22735 -3.68735 7772 ft 293 kts 110°
2026-04-30 11:21 40.22103 -3.66251 7377 ft 283 kts 110°
2026-04-30 11:21 40.21483 -3.63818 6842 ft 279 kts 110°
2026-04-30 11:21 40.20873 -3.61435 6358 ft 273 kts 109°
2026-04-30 11:22 40.20272 -3.59083 6058 ft 272 kts 110°
2026-04-30 11:22 40.19670 -3.56730 6009 ft 273 kts 109°
2026-04-30 11:22 40.19072 -3.54397 6000 ft 273 kts 109°
2026-04-30 11:22 40.18469 -3.52048 6010 ft 273 kts 109°
2026-04-30 11:23 40.17927 -3.49669 6002 ft 273 kts 101°
2026-04-30 11:23 40.18009 -3.47203 5957 ft 274 kts 73°
2026-04-30 11:23 40.20662 -3.43929 5086 ft 273 kts 23°
2026-04-30 11:24 40.22443 -3.43028 5000 ft 275 kts 20°
2026-04-30 11:24 40.24240 -3.42148 4996 ft 276 kts 21°
2026-04-30 11:24 40.26040 -3.41247 4986 ft 277 kts 21°
2026-04-30 11:25 40.29515 -3.39779 5022 ft 244 kts 358°
2026-04-30 11:25 40.31159 -3.40209 5010 ft 238 kts 337°
2026-04-30 11:25 40.33666 -3.42513 5002 ft 207 kts 317°
2026-04-30 11:26 40.35836 -3.44764 4590 ft 196 kts 321°
2026-04-30 11:26 40.36915 -3.45853 4301 ft 195 kts 321°
2026-04-30 11:26 40.37993 -3.46948 4023 ft 196 kts 321°
2026-04-30 11:27 40.39066 -3.48038 3781 ft 195 kts 321°
2026-04-30 11:27 40.40136 -3.49124 3524 ft 195 kts 321°
2026-04-30 11:27 40.41209 -3.50212 3239 ft 194 kts 321°
2026-04-30 11:27 40.42239 -3.51258 3001 ft 175 kts 321°
2026-04-30 11:28 40.43980 -3.53026 2534 ft 149 kts 322°
2026-04-30 11:28 40.44807 -3.53842 2318 ft 149 kts 322°
2026-04-30 11:28 40.45610 -3.54673 2131 ft 148 kts 321°
2026-04-30 11:29 40.46425 -3.55509 2010 ft 149 kts 321°
2026-04-30 11:29 40.47202 -3.56295 1987 ft 113 kts 322°
2026-04-30 11:29 40.48127 -3.56949 1985 ft 45 kts 344°
2026-04-30 11:30 40.48695 -3.57008 1984 ft 34 kts 352°
2026-04-30 11:30 40.48867 -3.57123 1984 ft 28 kts 358°
2026-04-30 11:30 40.49069 -3.57126 1986 ft 30 kts 359°
2026-04-30 11:31 40.49281 -3.57127 1984 ft 31 kts
2026-04-30 11:31 40.49503 -3.57125 1984 ft 33 kts
2026-04-30 11:31 40.49699 -3.57120 1987 ft 21 kts 17°
2026-04-30 11:31 40.49725 -3.56993 1985 ft 15 kts 103°
2026-04-30 11:32 40.49722 -3.56884 1984 ft 0 kts 89°